Find Starlink 4277

NORAD ID: 53009 Int'l Des: 2022-076 Owner: SPXS Country: US Constellation: starlink operational
LEOCIRCULAR

Live-Position

3D-Globus wird geladen...

Über Starlink 4277

Beschreibung wird geladen...

Nächste Überflüge

Passes for default location (London). Set your location on the main map for personalized predictions.

Höhenverlauf

Loading altitude history...

Zweizeiliger Elementsatz

1 53009U 22076Z 26106.72682704 .00000285 00000-0 36002-4 0 9995
2 53009 53.2174 273.3650 0001308 90.7500 269.3642 15.08839993208726
Epoch: 16. Apr. 2026 • Age: 19 hours

Aktueller Status

Höhe 551.7 km
Geschwindigkeit 7.59 km/s
Subsatellitenpunkt -35.26°S, 152.29°W
Startdatum 7. Juli 2022
Alter 3.7 years
Typ internet

Technische Details

Klassifizierung Payload
Masse 297.00 kg
Trockenmasse 275.00 kg
Gesamtmasse 297.00 kg
Länge 0.20 m
Durchmesser 2.80 m
Spannweite 9.00 m
Form Box + pan
Hersteller SPXS
Bus-Typ Starlink
Phasenstatus In Orbit
Besitzer/Staat SPXS/US

Most Searched